Location: Newark
(50.2553°N, 2.4750°E)
Time: 11:54:56
(UTC+00:00)

Envisat - Visible Passes

Search period start: 13 November 2019 00:00
Search period end: 23 November 2019 00:00
Orbit: 764 x 766 km, 98.1° (Epoch: 13 November)

Date Brightness Start Highest point End Pass type
(mag) Time Alt. Az. Time Alt. Az. Time Alt. Az.
13 Nov 3.0 17:41:35 10° SSE 17:46:41 88° WSW 17:51:49 10° NNW visible
13 Nov 6.0 19:23:54 10° WSW 19:26:28 14° W 19:29:04 10° NW visible
14 Nov 5.6 05:46:18 10° NE 05:50:21 23° E 05:54:22 10° SE visible
14 Nov 3.2 17:05:08 10° SE 17:10:00 48° ENE 17:14:53 10° N visible
14 Nov 5.0 18:44:56 10° SSW 18:49:15 27° W 18:53:35 10° NW visible
15 Nov 6.3 05:11:25 10° ENE 05:13:04 11° E 05:14:44 10° ESE visible
15 Nov 3.7 18:07:16 10° S 18:12:15 54° W 18:17:15 10° NNW visible
16 Nov 4.8 06:11:21 10° NNE 06:16:04 37° E 06:20:46 10° SSE visible
16 Nov 2.9 17:30:21 10° SSE 17:35:25 77° ENE 17:40:31 10° NNW visible
16 Nov 5.7 19:11:45 10° SW 19:15:03 17° W 19:18:21 10° NW visible
17 Nov 5.9 05:35:21 10° NE 05:38:57 19° E 05:42:32 10° SE visible
17 Nov 3.4 16:54:05 10° SE 16:58:48 40° ENE 17:03:31 10° N visible
17 Nov 4.7 18:33:19 10° SSW 18:37:53 33° W 18:42:29 10° NNW visible
18 Nov 3.4 17:55:53 10° S 18:00:56 67° WSW 18:06:01 10° NNW visible
19 Nov 5.1 06:00:13 10° NNE 06:04:43 31° E 06:09:11 10° SSE visible
19 Nov 3.0 17:19:09 10° SSE 17:24:10 63° ENE 17:29:13 10° N visible
19 Nov 5.5 18:59:51 10° SW 19:03:38 21° W 19:07:27 10° NW visible
20 Nov 6.0 05:24:31 10° NE 05:27:32 16° E 05:30:32 10° ESE visible
20 Nov 3.6 16:43:05 10° SE 16:47:35 33° ENE 16:52:07 10° N visible
20 Nov 4.3 18:21:45 10° SSW 18:26:32 41° W 18:31:21 10° NNW visible
21 Nov 4.1 06:25:26 10° NNE 06:30:23 49° E 06:35:19 10° S visible
21 Nov 3.1 17:44:33 10° SSE 17:49:38 82° WSW 17:54:46 10° NNW visible
21 Nov 6.1 19:27:17 10° WSW 19:29:29 13° W 19:31:42 10° WNW visible
22 Nov 5.5 05:49:09 10° NE 05:53:21 25° E 05:57:31 10° SSE visible
22 Nov 3.1 17:08:01 10° SE 17:12:55 52° ENE 17:17:52 10° N visible
22 Nov 5.2 18:48:04 10° SSW 18:52:14 25° W 18:56:27 10° NW visible
